Tracking 19817 objects as of 19-Aug-2019
HD Live streaming from Space Station
objects crossing your sky now

SL-8 R/B

Track SL-8 R/B now!
10-day predictions


NORAD ID: 8874
Int'l Code: 1976-051B
Perigee: 972.2 km
Apogee: 1,005.8 km
Inclination: 83.0 °
Period: 104.7 minutes
Semi major axis: 7359 km
RCS: 5.0446 m2 (large)
Launch date: June 2, 1976
Source: Commonwealth of Independent States (former USSR) (CIS)
Launch site: PLESETSK MISSILE AND SPACE COMPLEX (PKMTR)

Note: This is a ROCKET BODY
aabbcc
Your satellite tracking list
Your tracking list is empty




NASA's NSSDC Master Catalog

Two Line Element Set (TLE):
1  8874U 76051B   19231.80415548  .00000045  00000-0  31510-4 0  9990
2  8874  82.9610 137.4420 0022813 239.3182 120.5726 13.74953950167474
Source of the keplerian elements: AFSPC